Kelso, MO

5:19 PM CST on December 06, 2016 (GMT -0600)
Cape Girardeau Regional

Weather History for KCGI - May, 2014

Change the Weather History Date:

Thursday, May 1, 2014

  Actual Average Record
Temperature  
Mean Temperature 52 °F 62 °F  
Max Temperature 62 °F 74 °F 87 °F (1987)
Min Temperature 42 °F 51 °F 32 °F (1963)
Degree Days  
Heating Degree Days 13 4  
Month to date heating degree days 13 4  
Since 1 July heating degree days 4876 4322  
Cooling Degree Days 0 2  
Month to date cooling degree days 0 2  
Year to date cooling degree days 11 33  
Growing Degree Days 2 (Base 50)    
Moisture  
Dew Point 40 °F    
Average Humidity 64    
Maximum Humidity 86    
Minimum Humidity 42    
Precipitation  
Precipitation 0.00 in 0.19 in 2.93 in (1973)
Month to date precipitation 0.00 0.19  
Year to date precipitation 13.46 15.83  
Sea Level Pressure  
Sea Level Pressure 29.96 in    
Wind  
Wind Speed 7 mph (WSW)    
Max Wind Speed 18 mph    
Max Gust Speed 24 mph    
Visibility 10 miles    
Events      
T = Trace of Precipitation, MM = Missing Value Source: NWS Daily Summary

Daily Weather History Graph

Daily Weather History Graph

Search for Another Location

Airport or City:

Trip Planner

Search our weather history database for the weather conditions in past years. The results will help you decide how hot, cold, wet, or windy it might be!

Date:

Astronomy

May. 01, 2014 Rise Set
Actual Time 6:03 AM CDT 7:47 PM CDT
Civil Twilight 5:35 AM CDT 8:15 PM CDT
Nautical Twilight 5:01 AM CDT 8:49 PM CDT
Astronomical Twilight 4:25 AM CDT 9:25 PM CDT
Moon 7:52 AM CDT (5/1) 10:19 PM CDT (5/1)
Length of Visible Light 14h 40m
Length of Day
13h 44m
Waxing Crescent, 7% of the Moon is Illuminated
May 1
Waxing Crescent
May 6
First Quarter
May 14
Full
May 21
Last Quarter
May 28
New

Hourly Weather History & Observations

Time (CDT) Temp. Windchill Dew Point Humidity Pressure Visibility Wind Dir Wind Speed Gust Speed Precip Events Conditions
12:53 AM 46.9 °F - 39.9 °F 77% 29.97 in 10.0 mi WSW 5.8 mph - N/A   Overcast
1:53 AM 45.0 °F 42.6 °F 39.0 °F 80% 29.96 in 10.0 mi WSW 4.6 mph - N/A   Clear
2:53 AM 43.0 °F 38.8 °F 37.9 °F 82% 29.95 in 10.0 mi SW 6.9 mph - N/A   Clear
3:53 AM 44.1 °F 39.5 °F 37.9 °F 79% 29.95 in 10.0 mi SW 8.1 mph - N/A   Clear
4:53 AM 43.0 °F 38.2 °F 37.9 °F 82% 29.95 in 10.0 mi WSW 8.1 mph - N/A   Clear
5:53 AM 43.0 °F 38.8 °F 37.9 °F 82% 29.96 in 10.0 mi SW 6.9 mph - N/A   Clear
6:53 AM 44.1 °F 39.5 °F 39.0 °F 82% 29.97 in 10.0 mi SW 8.1 mph - N/A   Clear
7:53 AM 48.0 °F - 39.0 °F 71% 29.98 in 10.0 mi WSW 9.2 mph - N/A   Clear
8:53 AM 51.1 °F - 41.0 °F 68% 29.98 in 10.0 mi SW 5.8 mph - N/A   Clear
9:53 AM 55.0 °F - 39.9 °F 57% 29.97 in 10.0 mi WSW 9.2 mph - N/A   Clear
10:53 AM 57.9 °F - 39.9 °F 51% 29.96 in 10.0 mi WSW 17.3 mph 20.7 mph N/A   Clear
11:53 AM 57.9 °F - 37.9 °F 47% 29.96 in 10.0 mi West 12.7 mph 18.4 mph N/A   Mostly Cloudy
12:53 PM 60.8 °F - 39.2 °F 45% 29.95 in 10.0 mi West 12.7 mph - N/A   Mostly Cloudy
1:53 PM 59.0 °F - 39.0 °F 48% 29.95 in 10.0 mi West 10.4 mph - N/A   Overcast
2:53 PM 60.1 °F - 39.9 °F 47% 29.95 in 10.0 mi West 9.2 mph - N/A   Overcast
3:53 PM 60.1 °F - 39.0 °F 46% 29.94 in 10.0 mi WSW 15.0 mph 21.9 mph N/A   Overcast
4:53 PM 60.1 °F - 37.9 °F 44% 29.95 in 10.0 mi West 12.7 mph - N/A   Overcast
5:53 PM 59.0 °F - 39.9 °F 49% 29.94 in 10.0 mi West 10.4 mph - N/A   Overcast
6:53 PM 57.0 °F - 44.1 °F 62% 29.95 in 10.0 mi West 3.5 mph - N/A   Overcast
7:53 PM 55.9 °F - 42.1 °F 60% 29.97 in 10.0 mi Calm Calm - N/A   Overcast
8:53 PM 51.1 °F - 44.1 °F 77% 29.97 in 10.0 mi Calm Calm - N/A   Mostly Cloudy
9:53 PM 52.0 °F - 45.0 °F 77% 29.99 in 10.0 mi Calm Calm - N/A   Overcast
10:53 PM 51.1 °F - 46.0 °F 83% 29.99 in 10.0 mi Calm Calm - N/A   Overcast
11:53 PM 48.9 °F - 45.0 °F 86% 29.98 in 10.0 mi Calm Calm - N/A   Clear